SCP
0 0 0 0 0 0 0 0 0 0 0 0 0 0 1 1 0 1 1 0 0 0 0 0 0 0 1 1 3 4 5 6 6 6 5 4 3 3
0 0 0 0 0 0 0 0 0 0 0 0 0 0 0 0 0 0 0 0 0 0 0 0 0 0 1 1 2 4 5 5 5 5 4 3 2 2
0 0 0 0 0 0 0 0 0 0 0 0 0 0 0 0 0 0 0 0 0 0 0 0 0 0 0 1 2 3 3 4 3 3 2 2 1 1
0 0 0 0 0 0 0 0 0 0 0 0 0 0 0 0 0 0 0 0 0 0 0 0 0 0 0 1 1 1 1 1 1 1 1 1 0 0
0 0 0 0 0 0 0 0 0 0 0 0 0 0 0 0 0 0 0 0 0 0 0 0 0 0 0 0 0 0 0 0 0 0 0 0 0 0
0 0 0 0 0 0 0 0 0 0 0 0 0 0 0 0 0 0 0 0 0 0 0 0 0 0 0 0 0 0 0 0 0 0 0 0 0 0
0 0 0 0 0 0 0 0 0 0 0 0 0 0 0 0 0 0 0 0 0 0 0 0 0 0 0 0 0 0 0 0 0 0 0 0 0 0
0 0 0 0 0 0 0 0 0 0 0 0 0 0 0 0 0 0 0 0 0 0 0 0 0 0 0 0 0 0 0 0 0 0 0 0 0 0
0 0 0 0 0 0 0 0 0 0 0 0 0 0 0 0 0 0 0 0 0 0 0 0 0 0 0 0 0 0 0 0 0 0 0 0 0 0
0 0 0 0 0 0 0 0 0 0 0 0 0 0 0 0 0 0 0 0 0 0 0 0 0 0 0 0 0 0 0 0 0 0 0 0 0 0
0 0 0 0 0 0 0 0 0 0 0 0 0 0 0 0 0 0 0 0 0 0 0 0 0 0 0 0 0 0 0 0 0 0 0 0 0 0
0 0 0 0 0 0 0 0 0 0 0 0 0 0 0 0 0 0 0 0 0 0 0 0 0 0 0 0 0 0 0 0 0 0 0 0 0 0
0 0 0 0 0 0 0 0 0 0 0 0 0 0 0 0 0 0 0 0 0 0 0 0 0 0 0 0 0 0 0 0 0 0 0 0 0 0
0 0 0 0 0 0 0 0 0 0 0 0 0 0 0 0 0 0 0 0 0 0 0 0 0 0 0 0 0 0 0 0 0 0 0 0 0 0
0 0 0 0 0 0 0 0 0 0 0 0 0 0 0 0 0 0 0 0 0 0 0 0 0 0 0 0 0 0 0 0 0 0 0 0 0 0
0 0 0 0 0 0 0 0 0 0 0 0 0 0 0 0 0 0 0 0 0 0 0 0 0 0 0 0 0 0 0 0 0 0 0 0 0 0
0 0 0 0 0 0 0 0 0 0 0 0 0 0 0 0 0 0 0 0 0 0 0 0 0 0 0 0 0 0 0 0 0 0 0 0 0 0
0 0 0 0 0 0 0 0 0 0 0 0 0 0 0 0 0 0 0 0 0 0 0 0 0 0 0 0 0 0 0 0 0 0 0 0 0 0
0 0 0 0 0 0 0 0 0 0 0 0 0 0 0 0 0 0 0 0 0 0 0 0 0 0 0 0 0 0 0 0 0 0 0 0 0 0
0 0 0 0 0 0 0 0 0 0 0 0 0 0 0 0 0 0 0 0 0 0 0 0 0 0 0 0 0 0 0 0 0 0 0 0 0 0
0 0 0 0 0 0 0 0 0 0 0 0 0 0 0 0 0 0 0 0 0 0 0 0 0 0 0 0 0 0 0 0 0 0 0 0 0 0
0 0 0 0 0 0 0 0 0 0 0 0 0 0 0 0 0 0 0 0 0 0 0 0 0 0 0 0 0 0 0 0 0 0 0 0 0 0
0 0 0 0 0 0 0 0 0 0 0 0 0 0 0 0 0 0 0 0 0 0 0 0 0 0 0 0 0 0 0 0 0 0 0 0 0 0
Wind_Speed
14 14 12 11 11 10 10 10 12 14 13 13 11 11 9 8 5 5 1 9 10 11 14 16 18 20 22 23 21 19 16 18 21 23 24 24 24 25
11 13 13 11 10 9 9 9 10 12 12 9 11 11 10 8 3 1 5 10 13 15 19 21 20 15 15 18 17 17 20 22 22 22 22 23 26 27
12 13 13 13 10 9 9 9 10 10 13 10 10 9 10 7 3 4 4 5 8 18 23 27 28 21 4 12 18 23 23 23 23 24 27 28 28 28
13 13 13 11 12 10 9 10 10 10 11 13 9 7 6 4 5 6 5 6 7 18 25 30 32 29 21 18 22 25 25 26 27 28 29 29 30 30
13 13 13 12 12 10 11 10 9 10 9 9 9 5 2 3 7 8 8 6 7 11 20 26 31 32 31 29 30 31 29 29 29 29 30 31 31 30
12 11 12 12 13 13 11 11 10 10 9 9 7 5 3 5 7 7 7 6 7 9 15 18 25 28 31 31 33 35 34 33 32 31 31 30 29 29
12 11 11 14 18 14 12 11 10 9 7 7 7 5 5 8 7 6 9 8 9 7 10 11 12 13 15 22 27 32 33 33 32 31 30 29 27 27
11 12 12 13 16 20 22 21 17 12 9 7 6 7 8 9 8 9 9 7 6 6 9 11 10 11 11 12 23 28 29 30 30 30 29 28 26 25
11 11 11 12 16 15 18 20 16 16 15 8 7 9 11 12 12 10 7 9 10 7 10 11 10 11 10 14 24 25 26 27 28 28 28 27 25 23
11 10 12 14 15 18 16 11 7 8 12 9 6 10 12 12 11 13 15 14 12 9 8 11 10 11 11 12 21 23 24 25 26 26 26 25 23 21
12 11 14 15 19 22 13 8 3 2 6 8 8 13 17 18 17 14 13 13 12 9 6 9 11 12 12 12 16 22 22 23 23 24 24 23 21 20
11 12 15 19 21 19 11 8 5 4 7 11 14 18 17 17 15 12 11 14 13 8 6 8 11 10 10 10 11 12 15 17 17 15 14 10 5 11
10 10 11 22 19 15 12 9 9 7 10 13 14 14 12 10 8 7 7 8 10 9 9 9 9 8 7 7 8 8 9 10 10 10 12 14 11 9
10 10 11 20 15 13 10 13 14 10 9 11 11 11 11 10 9 10 11 10 9 12 12 9 9 11 11 10 8 7 7 7 8 10 10 11 14 16
10 14 16 17 12 9 13 14 10 8 8 9 10 11 10 12 12 12 13 12 11 9 9 10 12 12 10 10 8 8 8 7 8 9 9 9 9 9
11 12 12 12 12 10 9 9 9 9 9 10 10 11 11 11 11 10 10 9 10 9 9 11 12 13 11 11 9 10 8 7 8 9 9 8 8 8
12 7 9 10 10 9 7 7 7 8 9 9 9 10 10 11 10 8 8 10 11 11 10 9 11 11 11 9 9 10 10 9 9 9 9 10 9 9
11 9 10 10 10 9 7 7 7 8 8 8 9 9 10 11 10 8 9 11 11 11 11 10 11 12 11 10 8 11 10 10 9 9 10 10 11 11
9 9 9 9 9 9 8 6 7 8 8 8 9 9 10 10 9 9 10 11 11 11 11 11 11 11 13 13 9 7 10 9 9 9 10 10 10 10
10 9 9 9 8 8 7 5 5 7 8 8 8 9 9 9 9 9 10 12 11 11 10 9 8 10 11 13 13 11 8 8 9 10 11 10 10 11
9 9 8 8 8 8 7 5 5 7 9 8 8 9 9 9 8 9 10 11 11 10 10 9 11 13 12 11 12 11 11 14 13 8 9 10 8 7
8 8 8 8 8 8 7 6 4 5 8 9 8 8 8 8 9 10 10 10 10 10 11 11 12 11 11 12 12 13 13 12 14 17 15 10 3 4
7 7 6 7 7 7 7 6 5 4 5 7 8 7 8 8 8 8 9 10 10 12 12 12 11 11 12 11 11 11 13 11 9 10 12 13 17 18
Wind_Direction
284 282 279 279 278 276 275 272 275 279 278 281 280 277 279 272 261 266 48 58 30 7 351 335 311 281 258 243 234 223 206 172 157 151 147 144 145 144
289 285 283 280 278 275 273 270 266 270 274 273 276 282 288 280 230 155 95 72 46 32 23 9 352 318 257 225 200 178 156 146 143 142 141 139 135 130
295 290 286 281 276 272 269 265 263 261 268 271 271 280 280 261 183 125 94 69 51 43 38 27 16 7 348 172 152 140 134 132 130 128 125 123 122 122
296 294 291 286 279 274 268 263 259 254 257 265 266 269 266 229 145 115 95 76 60 51 49 42 31 29 47 90 110 113 114 114 114 115 115 115 114 113
297 295 292 287 283 278 273 268 260 254 244 249 256 250 221 149 125 107 90 70 58 53 53 50 44 40 49 64 81 88 91 95 98 100 102 103 103 103
295 295 295 291 287 285 282 276 269 257 241 237 240 227 176 145 134 121 97 69 55 50 55 53 50 44 47 58 70 78 81 83 86 89 91 93 95 97
303 306 302 297 294 296 293 285 276 261 240 224 220 198 163 154 143 123 110 97 69 54 62 52 51 47 43 49 63 74 79 82 85 87 88 89 91 93
312 315 312 307 312 306 299 290 275 258 236 214 203 183 164 150 134 132 130 124 90 60 75 67 59 60 54 56 69 75 81 85 87 89 90 91 92 93
318 320 321 323 318 315 305 293 272 245 231 214 193 173 160 152 141 137 114 96 96 99 92 83 73 75 71 73 80 84 87 90 93 94 94 94 93 92
328 334 336 330 327 324 311 298 267 222 206 204 187 167 155 145 136 121 113 103 93 86 93 95 90 86 83 79 83 88 91 94 96 98 99 97 95 93
337 351 348 338 331 332 330 330 335 171 171 161 137 129 127 127 128 124 124 117 109 102 97 101 106 102 96 94 90 89 91 95 99 103 106 108 109 103
340 350 349 341 337 343 351 358 22 73 118 116 113 113 117 121 123 129 133 127 123 113 119 117 117 112 104 103 108 106 98 93 92 93 92 82 98 110
339 349 342 337 342 355 9 24 31 69 100 109 110 111 111 109 98 85 89 117 126 121 139 135 130 115 106 111 100 102 108 114 113 102 79 59 55 100
343 350 338 335 346 15 29 32 38 62 91 103 108 112 111 105 95 90 89 89 103 124 141 142 126 122 121 116 109 109 110 114 116 113 108 99 78 67
347 349 340 343 357 27 36 38 46 61 80 92 100 102 102 103 99 95 95 99 105 115 130 128 123 124 119 117 115 119 117 116 117 119 122 120 119 114
348 341 342 4 17 24 41 50 56 62 75 85 93 100 104 104 103 107 111 111 108 103 104 113 117 121 120 123 124 127 121 119 125 118 111 104 95 89
335 349 13 18 16 16 41 60 67 73 78 85 93 100 104 107 109 113 115 115 112 111 108 105 107 110 116 125 124 115 116 115 114 113 111 103 91 84
352 16 16 16 14 10 20 54 71 75 81 89 95 100 105 110 115 118 120 118 116 116 116 122 125 119 107 78 65 114 114 118 122 121 113 107 98 88
16 20 13 10 9 8 11 38 71 80 83 89 97 104 109 114 118 121 122 122 121 125 131 140 144 138 125 113 93 80 117 122 123 115 106 100 97 94
16 14 10 5 5 5 7 27 72 89 90 91 96 102 108 113 117 122 126 127 125 126 129 135 135 127 120 117 114 97 65 113 118 112 109 104 97 95
9 7 6 2 1 3 6 22 69 98 106 104 101 103 107 111 116 121 121 120 119 116 106 95 86 97 107 112 109 103 79 56 66 95 118 122 128 137
4 2 360 1 0 4 9 20 59 94 112 115 113 110 111 113 118 123 124 120 112 109 110 117 125 120 117 114 115 117 114 107 85 75 63 53 90 139
358 356 356 358 1 4 9 20 49 85 97 108 114 118 120 122 128 131 126 120 122 128 132 133 127 117 115 115 114 115 118 119 116 99 82 70 79 86